This is the latest recevied weather packets stored in our database for station/object KI6AOK. If no packets are shown the sender has not sent any weather packets the latest 10 day(s).
| Time | Temp. | Humidity | Pressure | Rain* | Wind** | Luminosity | Snow |
|---|---|---|---|---|---|---|---|
| 1777971650 | 13.33° C | 88% | 1013.7 hPa | 0 mm | - | 0 W/m² | - |
| 1777971347 | 13.33° C | 88% | 1013.6 hPa | 0 mm | - | 0 W/m² | - |
| 1777971045 | 13.33° C | 88% | 1013.7 hPa | 0 mm | - | 0 W/m² | - |
| 1777970743 | 13.33° C | 90% | 1013.9 hPa | 0 mm | - | 0 W/m² | - |
| 1777970441 | 13.33° C | 90% | 1013.9 hPa | 0 mm | - | 0 W/m² | - |
| 1777970137 | 13.33° C | 91% | 1013.8 hPa | 1.27 mm | - | 0 W/m² | - |
| 1777969834 | 13.33° C | 91% | 1013.6 hPa | 1.27 mm | - | 0 W/m² | - |
| 1777969530 | 13.33° C | 91% | 1013.9 hPa | 0 mm | - | 0 W/m² | - |
| 1777969227 | 13.33° C | 91% | 1013.9 hPa | 0 mm | - | 0 W/m² | - |
| 1777968923 | 13.33° C | 92% | 1013.9 hPa | 0 mm | - | 0 W/m² | - |
| 1777968621 | 13.89° C | 92% | 1014 hPa | 0 mm | - | 0 W/m² | - |
| 1777968317 | 13.33° C | 92% | 1014.5 hPa | 0 mm | - | 0 W/m² | - |
| 1777968014 | 13.33° C | 92% | 1014.2 hPa | 0 mm | - | 0 W/m² | - |
| 1777967709 | 13.33° C | 92% | 1014.2 hPa | 0 mm | - | 0 W/m² | - |
| 1777967406 | 13.33° C | 92% | 1014.2 hPa | 3.05 mm | - | 0 W/m² | - |
| 1777967104 | 13.33° C | 92% | 1014.3 hPa | 11.94 mm | - | 0 W/m² | - |
| 1777966801 | 13.89° C | 90% | 1014.5 hPa | 10.67 mm | - | 0 W/m² | - |
| 1777966498 | 13.89° C | 89% | 1014.5 hPa | 3.56 mm | - | 0 W/m² | - |
| 1777966195 | 13.89° C | 89% | 1014.7 hPa | 3.05 mm | - | 0 W/m² | - |
| 1777965892 | 13.89° C | 89% | 1014.5 hPa | 1.27 mm | - | 0 W/m² | - |
| 1777965588 | 13.89° C | 89% | 1014.7 hPa | 0 mm | - | 0 W/m² | - |
| 1777965284 | 13.89° C | 90% | 1014.5 hPa | 0 mm | - | 0 W/m² | - |
| 1777964982 | 13.89° C | 90% | 1014.6 hPa | 0 mm | - | 0 W/m² | - |
| 1777964678 | 13.33° C | 90% | 1014.7 hPa | 0 mm | - | 0 W/m² | - |
| 1777964374 | 13.33° C | 90% | 1014.6 hPa | 0 mm | - | 0 W/m² | - |
* Rain latest hour (hover to see other rain measurements)
** Current wind speed in m/s (hover to see current wind gust speed)